Home   Weather   Parma   Past weeks

Flag for Italy Past Weather in Parma, Italy — Yesterday and Last 2 Weeks

Now
57 °F

Partly cloudy.


Feels Like: 55 °F
Forecast: 42 / 66 °F
Wind: 9 mph from Southwest

Location: Parma

Current Time: Apr 28, 2017 at 2:35:17 am

Latest Report: Apr 27, 2017 at 10:50 pm


Visibility: 5 mi

Pressure: 29.68 "Hg

Humidity: 72%

Dew Point: 48 °F

Location of ParmaLocation

Past Weather in Parma — Graph

°F

Parma Temperature Yesterday

Maximum temperature yesterday: 63 °F (at 2:50 pm)
Minimum temperature yesterday: 55 °F (at 7:00 am)
Average temperature yesterday: 59 °F

High & Low Weather Summary for the Past Weeks

 TemperatureHumidityPressure
High77 °F (Apr 13, 2:50 pm)100% (Apr 26, 5:50 pm)30.42 "Hg (Apr 26, 5:50 pm)
Low32 °F (Apr 20, 7:00 am)13% (Apr 20, 3:50 pm)29.65 "Hg (Apr 27, 8:50 pm)
Average59 °F61%29.97 "Hg
* Reported Apr 12 10:50 pm — Apr 27 10:50 pm, Parma, Weather by CustomWeather, © 2017

Note: Actual official high and low records may vary slightly from our data, if they occured in-between our weather recording intervals... More about our weather records

Advertising

Parma Weather History for the Previous 24 Hours

Scroll right to see more
 ConditionsComfort  
Time TempWeatherWind HumidityBarometerVisibility
10:50 pm
Thu, Apr 27
57 °FPartly cloudy.9 mph72%29.68 "Hg5 mi
9:50 pm55 °FPassing clouds.8 mph82%29.68 "Hg5 mi
8:50 pm55 °FPassing clouds.9 mph82%29.65 "Hg5 mi
7:50 pm57 °FLight rain. Partly sunny.10 mph82%29.68 "Hg5 mi
6:50 pm61 °FPartly sunny.2 mph72%29.68 "Hg5 mi
5:50 pm63 °FLight rain. Fog.3 mph88%29.71 "Hg3 mi
4:50 pm63 °FLight rain. Partly sunny.5 mph83%29.71 "Hg4 mi
3:50 pm63 °FPartly sunny.6 mph83%29.74 "Hg4 mi
2:50 pm63 °FFog.3 mph88%29.74 "Hg2 mi
1:50 pm61 °FFog.2 mph88%29.77 "Hg2 mi
12:50 pm61 °FFog.2 mph88%29.77 "Hg2 mi
11:50 am59 °FFog.3 mph88%29.77 "Hg2 mi
10:50 am57 °FFog.3 mph94%29.77 "Hg1 mi
9:50 am57 °FFog.1 mph94%29.77 "Hg1 mi
8:50 am55 °FFog.1 mph100%29.77 "Hg1 mi
7:50 am55 °FFog.3 mph100%29.74 "Hg1 mi
7:00 am55 °FFog.2 mph100%29.74 "Hg1 mi
Weather by CustomWeather, © 2017

See weather overviewHow to use our weather pages